User: anonymous   Login
Location: D�derode
(51.8092°N, 10.1065°E)
Time: 07:23:02
(UTC+00:00)
Language:

Cosmos 1680 Rocket - Orbit

View from above orbital plane
View from above orbital plane
View from above satellite
View from above satellite

Ground track
Ground track

The orbit data is extracted from the following two-line orbital elements,

1 16012U 85079B   21058.07351135  .00000050  00000-0  26013-4 0  9991
2 16012  74.0604 177.3008 0013804 104.5385 255.7300 14.36361771857743
Epoch (UTC): 27 February 2021 01:45:51
Eccentricity: 0.0013804
inclination: 74.0604°
perigee height: 760 km
apogee height: 780 km
right ascension of ascending node: 177.3008°
argument of perigee: 104.5385°
revolutions per day: 14.36361771
mean anomaly at epoch: 255.7300°
orbit number at epoch: 85774

The dashed part of the orbit path shows where the satellite is in the earth's shadow,  

DLR